星链-32512 (STARLINK-32512)

导读 | 豆包AI

STARLINK-32512是美国太空探索技术公司(SpaceX)于2024年11月18日发射的星链(Starlink)第二代低轨卫星,隶属于Starlink全球卫星互联网星座,星链星座由数万颗低轨卫星组网,可为全球偏远欠发达地区提供高速低延迟互联网接入服务。STARLINK-32512属于第二代主力星链卫星,单星重约1250公斤,设计寿命5-7年,将进一步扩充星链星座规模,增强全球网络覆盖能力。

基本信息
目录编号:
62027
目录名称:
STARLINK-32512
国际标识:
2024-213V
轨道中心:
EARTH
卫星名称:
星链-32512
卫星全名:
星链-32512 (STARLINK-32512)
卫星状态:
在轨 (已飞行529 天)
发射日期:
2024-11-18 UTC
国别 :
美国 (US)
星等 :
--
轨道信息
数据来源 国际轨道数据 AOE轨道数据
星历时间 2026-04-30T04:51:53+0800
1天前
查看轨道信息
2026-04-24T17:00:00+0800
6天前
查看轨道信息
半长轴 6853.442km 6853.336km
偏心率 0.0001836 0.0001204
轨道倾角 53.161° 53.158°
近地点辐角 143.585° 83.038°
升交点赤经 290.182° 315.709°
平近点角 216.528° 233.512°
近地点 474.046km 474.373km
远地点 476.564km 476.025km
周期 94.107分钟 94.105分钟
每日圈数 15.3017 15.302055
详细信息
固有亮度:
5
最大亮度:
2.5
卫星平台:
Starlink V1.0
覆盖范围:
全球
运营商:
太空探索技术公司
运营商所在国:
美国
制造商(研发单位):
太空探索技术公司
制造商所在国:
美国
使用方式:
暂无
卫星简介
Starlink 计划是 SpaceX 推出的全球卫星互联网项目,通过发射低轨道卫星,为全球尤其是偏远地区提供高速、低延迟的互联网服务。自 2019 年起,Starlink 已部署数千颗卫星,旨在缩小全球数字鸿沟,推动互联网普及。该项目还为军事、航空等行业提供通信支持,带来广泛经济效益。
2D轨道图
3D轨道图
轨道高度分析图
轨道倾角分析图
轨道综合分析图
查看轨道综合分析图